Location: La B�doule
(43.2468°N, 5.5934°E)
Time: 22:25:47
(UTC+00:00)

Cosmos 2297 Rocket - Pass Details

Date: 07 June 2020
Orbit: 841 x 842 km, 71.0° (Epoch: 04 July)

Event Time Altitude Azimuth Distance (km) Brightness Sun altitude
Rises 01:09:02 0° 314° (NW) 3,403 5.6 -20.6°
Reaches altitude 10° 01:13:19 10° 283° (WNW) 2,461 4.5 -20.3°
Enters shadow 01:14:54 12° 267° (W) 2,351 4.2 -20.2°
